• In Deutschland
  • Länderverzeichnis
  • Für 7 Tage
  • Wassertemperatur
  • Satellitenkarten
  • Wetterkarte
  • Widgets
  • user-avatar
    Anmelden

    Stündliche Wetter Sankt Augustin

    Heute, 13 Dezember, Mittwoch

    Zeit Temperatur Niederschläge Wind Luftdruck Luftfeuchtigkeit
    00:00 0°C° 0 mm 3 m/S 752 mmHg 90%
    01:00 0°C° 0 mm 3 m/S 751 mmHg 89%
    02:00 -1°C° 0 mm 4 m/S 751 mmHg 89%
    03:00 -1°C° 0 mm 4 m/S 750 mmHg 88%
    04:00 0°C° 0 mm 4 m/S 750 mmHg 86%
    05:00 0°C° 0 mm 5 m/S 749 mmHg 85%
    06:00 0°C° 0 mm 4 m/S 749 mmHg 84%
    07:00 +1°C° 0,1 mm 5 m/S 748 mmHg 82%
    08:00 +1°C° 0,1 mm 6 m/S 747 mmHg 81%
    09:00 +2°C° 0,1 mm 7 m/S 746 mmHg 79%
    10:00 +2°C° 0,9 mm 7 m/S 746 mmHg 78%
    11:00 +3°C° 0,9 mm 7 m/S 745 mmHg 78%
    12:00 +3°C° 0,9 mm 7 m/S 744 mmHg 78%
    13:00 +3°C° 1,3 mm 7 m/S 743 mmHg 80%
    14:00 +3°C° 1,3 mm 7 m/S 742 mmHg 82%
    15:00 +3°C° 1,3 mm 6 m/S 741 mmHg 83%
    16:00 +4°C° 0,5 mm 6 m/S 740 mmHg 85%
    17:00 +4°C° 0,5 mm 6 m/S 739 mmHg 86%
    18:00 +4°C° 0,5 mm 6 m/S 738 mmHg 87%
    19:00 +5°C° 0,7 mm 6 m/S 736 mmHg 87%
    20:00 +5°C° 0,7 mm 7 m/S 735 mmHg 86%
    21:00 +5°C° 0,7 mm 8 m/S 734 mmHg 85%
    22:00 +5°C° 1,9 mm 7 m/S 734 mmHg 83%
    23:00 +4°C° 1,9 mm 7 m/S 734 mmHg 81%

    Morgen, 14 Dezember, Donnerstag

    Zeit Temperatur Niederschläge Wind Luftdruck Luftfeuchtigkeit
    00:00 +3°C° 1,9 mm 6 m/S 734 mmHg 80%
    01:00 +3°C° 0,9 mm 6 m/S 735 mmHg 81%
    02:00 +2°C° 0,9 mm 5 m/S 735 mmHg 83%
    03:00 +2°C° 0,9 mm 5 m/S 735 mmHg 84%
    04:00 +2°C° 0,6 mm 6 m/S 736 mmHg 80%
    05:00 0°C° 0,6 mm 7 m/S 737 mmHg 76%
    06:00 0°C° 0,6 mm 8 m/S 737 mmHg 71%
    07:00 0°C° 0 mm 7 m/S 738 mmHg 72%
    08:00 0°C° 0 mm 7 m/S 739 mmHg 73%
    09:00 +1°C° 0 mm 6 m/S 740 mmHg 74%
    10:00 +2°C° 0,2 mm 6 m/S 740 mmHg 75%
    11:00 +2°C° 0,2 mm 6 m/S 739 mmHg 76%
    12:00 +2°C° 0,2 mm 6 m/S 739 mmHg 77%
    13:00 +2°C° 0,4 mm 6 m/S 738 mmHg 79%
    14:00 +2°C° 0,4 mm 5 m/S 738 mmHg 81%
    15:00 +3°C° 0,4 mm 4 m/S 737 mmHg 84%
    16:00 +3°C° 0,2 mm 4 m/S 737 mmHg 85%
    17:00 +3°C° 0,2 mm 3 m/S 736 mmHg 87%
    18:00 +2°C° 0,2 mm 3 m/S 736 mmHg 88%
    19:00 +2°C° 0,2 mm 3 m/S 736 mmHg 89%
    20:00 +2°C° 0,2 mm 3 m/S 735 mmHg 89%
    21:00 +2°C° 0,2 mm 3 m/S 735 mmHg 89%
    22:00 +2°C° 0,2 mm 3 m/S 735 mmHg 88%
    23:00 +2°C° 0,2 mm 3 m/S 736 mmHg 87%

    übermorgen, 15 Dezember, Freitag

    Zeit Temperatur Niederschläge Wind Luftdruck Luftfeuchtigkeit
    00:00 +1°C° 0,2 mm 4 m/S 736 mmHg 86%
    01:00 +1°C° 0 mm 3 m/S 736 mmHg 86%
    02:00 0°C° 0 mm 3 m/S 737 mmHg 87%
    03:00 0°C° 0 mm 3 m/S 737 mmHg 87%
    04:00 0°C° 0 mm 3 m/S 737 mmHg 88%
    05:00 0°C° 0 mm 3 m/S 737 mmHg 88%
    06:00 0°C° 0 mm 3 m/S 737 mmHg 88%
    07:00 0°C° 0,1 mm 3 m/S 738 mmHg 88%
    08:00 +1°C° 0,1 mm 3 m/S 738 mmHg 88%
    09:00 +2°C° 0,1 mm 3 m/S 738 mmHg 88%
    10:00 +2°C° 0,1 mm 3 m/S 738 mmHg 88%
    11:00 +3°C° 0,1 mm 3 m/S 739 mmHg 87%
    12:00 +3°C° 0,1 mm 3 m/S 739 mmHg 86%
    13:00 +3°C° 0,1 mm 3 m/S 739 mmHg 88%
    14:00 +4°C° 0,1 mm 2 m/S 739 mmHg 89%
    15:00 +4°C° 0,1 mm 2 m/S 739 mmHg 90%
    16:00 +3°C° 0,1 mm 2 m/S 740 mmHg 92%
    17:00 +3°C° 0,1 mm 2 m/S 740 mmHg 93%
    18:00 +3°C° 0,1 mm 1 m/S 741 mmHg 94%
    19:00 +3°C° 0 mm 1 m/S 741 mmHg 95%
    20:00 +3°C° 0 mm 1 m/S 742 mmHg 95%
    21:00 +3°C° 0 mm 1 m/S 742 mmHg 96%
    22:00 +2°C° 0 mm 2 m/S 743 mmHg 96%
    23:00 +2°C° 0 mm 2 m/S 743 mmHg 95%

    16 Dezember, Samstag

    Zeit Temperatur Niederschläge Wind Luftdruck Luftfeuchtigkeit
    00:00 +2°C° 0 mm 2 m/S 743 mmHg 95%
    01:00 +2°C° 0,1 mm 2 m/S 743 mmHg 95%
    02:00 +2°C° 0,1 mm 2 m/S 744 mmHg 94%
    03:00 +1°C° 0,1 mm 3 m/S 744 mmHg 94%
    04:00 0°C° 0 mm 3 m/S 745 mmHg 93%
    05:00 0°C° 0 mm 3 m/S 745 mmHg 93%
    06:00 0°C° 0 mm 3 m/S 746 mmHg 92%
    07:00 0°C° 0,1 mm 3 m/S 746 mmHg 92%
    08:00 0°C° 0,1 mm 3 m/S 747 mmHg 91%
    09:00 0°C° 0,1 mm 4 m/S 748 mmHg 90%
    10:00 0°C° 0,1 mm 4 m/S 748 mmHg 87%
    11:00 +1°C° 0,1 mm 4 m/S 748 mmHg 84%
    12:00 +3°C° 0,1 mm 4 m/S 749 mmHg 82%
    13:00 +1°C° 0,1 mm 4 m/S 749 mmHg 82%
    14:00 +2°C° 0,1 mm 3 m/S 750 mmHg 82%
    15:00 +2°C° 0,1 mm 3 m/S 750 mmHg 83%
    16:00 +1°C° 0,1 mm 3 m/S 751 mmHg 84%
    17:00 +1°C° 0,1 mm 3 m/S 751 mmHg 86%
    18:00 0°C° 0,1 mm 3 m/S 752 mmHg 87%
    19:00 0°C° 0,1 mm 3 m/S 752 mmHg 88%
    20:00 0°C° 0,1 mm 3 m/S 753 mmHg 89%
    21:00 0°C° 0,1 mm 3 m/S 754 mmHg 90%
    22:00 -1°C° 0,1 mm 4 m/S 754 mmHg 91%
    23:00 -1°C° 0,1 mm 4 m/S 754 mmHg 91%

    17 Dezember, Sonntag

    Zeit Temperatur Niederschläge Wind Luftdruck Luftfeuchtigkeit
    00:00 -1°C° 0,1 mm 4 m/S 755 mmHg 92%
    01:00 0°C° 0,2 mm 3 m/S 755 mmHg 93%
    02:00 0°C° 0,2 mm 3 m/S 755 mmHg 93%
    03:00 0°C° 0,2 mm 3 m/S 755 mmHg 94%
    04:00 0°C° 0,2 mm 3 m/S 756 mmHg 94%
    05:00 0°C° 0,2 mm 3 m/S 756 mmHg 94%
    06:00 +1°C° 0,2 mm 2 m/S 756 mmHg 95%
    07:00 +1°C° 0 mm 2 m/S 757 mmHg 94%
    08:00 +1°C° 0 mm 2 m/S 757 mmHg 94%
    09:00 +1°C° 0 mm 2 m/S 758 mmHg 94%
    10:00 +2°C° 0 mm 2 m/S 758 mmHg 92%
    11:00 +2°C° 0 mm 3 m/S 758 mmHg 90%
    12:00 +2°C° 0 mm 3 m/S 759 mmHg 88%
    13:00 +2°C° 0 mm 3 m/S 759 mmHg 90%
    14:00 +3°C° 0 mm 2 m/S 759 mmHg 91%
    15:00 +2°C° 0 mm 2 m/S 760 mmHg 92%
    16:00 +2°C° 0 mm 2 m/S 760 mmHg 93%
    17:00 +1°C° 0 mm 2 m/S 760 mmHg 94%
    18:00 +1°C° 0 mm 2 m/S 761 mmHg 94%
    19:00 -1°C° 0 mm 2 m/S 761 mmHg 94%
    20:00 -1°C° 0 mm 2 m/S 762 mmHg 94%
    21:00 -1°C° 0 mm 2 m/S 762 mmHg 94%
    22:00 +1°C° 0 mm 2 m/S 762 mmHg 93%
    23:00 +1°C° 0 mm 2 m/S 761 mmHg 93%

    18 Dezember, Montag

    Zeit Temperatur Niederschläge Wind Luftdruck Luftfeuchtigkeit
    00:00 0°C° 0 mm 3 m/S 761 mmHg 92%
    01:00 0°C° 0 mm 3 m/S 761 mmHg 90%
    02:00 -1°C° 0 mm 4 m/S 760 mmHg 89%
    03:00 0°C° 0 mm 4 m/S 760 mmHg 88%
    04:00 0°C° 1,1 mm 4 m/S 759 mmHg 89%
    05:00 0°C° 1,1 mm 5 m/S 758 mmHg 90%
    06:00 0°C° 1,1 mm 5 m/S 757 mmHg 91%
    07:00 +1°C° 1,2 mm 5 m/S 757 mmHg 93%
    08:00 +1°C° 1,2 mm 5 m/S 756 mmHg 94%
    09:00 +2°C° 1,2 mm 5 m/S 756 mmHg 95%
    10:00 +3°C° 0,7 mm 4 m/S 755 mmHg 96%
    11:00 +4°C° 0,7 mm 4 m/S 755 mmHg 97%
    12:00 +5°C° 0,7 mm 4 m/S 755 mmHg 98%
    13:00 +5°C° 0,3 mm 4 m/S 755 mmHg 98%
    14:00 +5°C° 0,3 mm 4 m/S 756 mmHg 98%
    15:00 +5°C° 0,3 mm 3 m/S 756 mmHg 98%
    16:00 +4°C° 0,1 mm 3 m/S 757 mmHg 98%
    17:00 +4°C° 0,1 mm 3 m/S 758 mmHg 97%
    18:00 +4°C° 0,1 mm 3 m/S 758 mmHg 97%
    19:00 +3°C° 0 mm 3 m/S 759 mmHg 97%
    20:00 +4°C° 0 mm 2 m/S 760 mmHg 97%
    21:00 +4°C° 0 mm 2 m/S 761 mmHg 97%
    22:00 +4°C° 0 mm 2 m/S 761 mmHg 97%
    23:00 +4°C° 0 mm 2 m/S 761 mmHg 97%
    Mehr zeigen